Year,Month,Day,Hour,Minute,Value (Times are PST for temperature in C)
2020,03,31,00,00,3.10
2020,03,31,00,01,3.10
2020,03,31,00,02,3.10
2020,03,31,00,03,3.10
2020,03,31,00,04,3.10
2020,03,31,00,05,3.10
2020,03,31,00,06,3.10
2020,03,31,00,07,3.10
2020,03,31,00,08,3.00
2020,03,31,00,09,3.00
2020,03,31,00,10,3.00
2020,03,31,00,11,3.00
2020,03,31,00,12,3.00
2020,03,31,00,13,2.90
2020,03,31,00,14,2.90
2020,03,31,00,15,2.90
2020,03,31,00,16,2.90
2020,03,31,00,17,2.90
2020,03,31,00,18,2.90
2020,03,31,00,19,2.90
2020,03,31,00,20,2.90
2020,03,31,00,21,2.90
2020,03,31,00,22,2.90
2020,03,31,00,23,2.80
2020,03,31,00,24,2.80
2020,03,31,00,25,2.80
2020,03,31,00,26,2.80
2020,03,31,00,27,2.90
2020,03,31,00,28,2.80
2020,03,31,00,29,2.80
2020,03,31,00,30,2.80
2020,03,31,00,31,2.80
2020,03,31,00,32,2.80
2020,03,31,00,33,2.80
2020,03,31,00,34,2.90
2020,03,31,00,35,2.90
2020,03,31,00,36,2.90
2020,03,31,00,37,2.90
2020,03,31,00,38,2.90
2020,03,31,00,39,2.90
2020,03,31,00,40,3.00
2020,03,31,00,41,3.00
2020,03,31,00,42,2.90
2020,03,31,00,43,2.90
2020,03,31,00,44,2.90
2020,03,31,00,45,2.90
2020,03,31,00,46,2.90
2020,03,31,00,47,2.90
2020,03,31,00,48,2.90
2020,03,31,00,49,2.90
2020,03,31,00,50,2.90
2020,03,31,00,51,2.90
2020,03,31,00,52,2.90
2020,03,31,00,53,2.90
2020,03,31,00,54,2.90
2020,03,31,00,55,2.90
2020,03,31,00,56,2.80
2020,03,31,00,57,2.80
2020,03,31,00,58,2.80
2020,03,31,00,59,2.80
2020,03,31,01,00,2.80
2020,03,31,01,01,2.80
2020,03,31,01,02,2.70
2020,03,31,01,03,2.70
2020,03,31,01,04,2.70
2020,03,31,01,05,2.70
2020,03,31,01,06,2.60
2020,03,31,01,07,2.60
2020,03,31,01,08,2.60
2020,03,31,01,09,2.50
2020,03,31,01,10,2.50
2020,03,31,01,11,2.50
2020,03,31,01,12,2.40
2020,03,31,01,13,2.40
2020,03,31,01,14,2.40
2020,03,31,01,15,2.30
2020,03,31,01,16,2.30
2020,03,31,01,17,2.30
2020,03,31,01,18,2.30
2020,03,31,01,19,2.20
2020,03,31,01,20,2.20
2020,03,31,01,21,2.20
2020,03,31,01,22,2.20
2020,03,31,01,23,2.10
2020,03,31,01,24,2.10
2020,03,31,01,25,2.10
2020,03,31,01,26,2.10
2020,03,31,01,27,2.10
2020,03,31,01,28,2.10
2020,03,31,01,29,2.00
2020,03,31,01,30,2.00
2020,03,31,01,31,2.00
2020,03,31,01,32,2.00
2020,03,31,01,33,2.00
2020,03,31,01,34,2.00
2020,03,31,01,35,2.00
2020,03,31,01,36,2.00
2020,03,31,01,37,2.00
2020,03,31,01,38,2.00
2020,03,31,01,39,2.00
2020,03,31,01,40,2.00
2020,03,31,01,41,2.00
2020,03,31,01,42,1.90
2020,03,31,01,43,1.90
2020,03,31,01,44,1.90
2020,03,31,01,45,1.90
2020,03,31,01,46,1.90
2020,03,31,01,47,1.90
2020,03,31,01,48,1.90
2020,03,31,01,49,1.80
2020,03,31,01,50,1.80
2020,03,31,01,51,1.80
2020,03,31,01,52,1.80
2020,03,31,01,53,1.80
2020,03,31,01,54,1.80
2020,03,31,01,55,1.80
2020,03,31,01,56,1.80
2020,03,31,01,57,1.80
2020,03,31,01,58,1.80
2020,03,31,01,59,1.80
2020,03,31,02,00,1.80
2020,03,31,02,01,1.80
2020,03,31,02,02,1.80
2020,03,31,02,03,1.80
2020,03,31,02,04,1.80
2020,03,31,02,05,1.80
2020,03,31,02,06,1.80
2020,03,31,02,07,1.90
2020,03,31,02,08,1.90
2020,03,31,02,09,1.90
2020,03,31,02,10,1.90
2020,03,31,02,11,1.90
2020,03,31,02,12,1.90
2020,03,31,02,13,1.90
2020,03,31,02,14,1.90
2020,03,31,02,15,1.90
2020,03,31,02,16,1.90
2020,03,31,02,17,1.90
2020,03,31,02,18,2.00
2020,03,31,02,19,2.00
2020,03,31,02,20,2.00
2020,03,31,02,21,2.00
2020,03,31,02,22,2.00
2020,03,31,02,23,2.00
2020,03,31,02,24,2.00
2020,03,31,02,25,2.00
2020,03,31,02,26,2.00
2020,03,31,02,27,2.00
2020,03,31,02,28,2.00
2020,03,31,02,29,2.00
2020,03,31,02,30,2.00
2020,03,31,02,31,2.00
2020,03,31,02,32,2.00
2020,03,31,02,33,2.00
2020,03,31,02,34,2.00
2020,03,31,02,35,2.00
2020,03,31,02,36,2.00
2020,03,31,02,37,2.00
2020,03,31,02,38,2.10
2020,03,31,02,39,2.10
2020,03,31,02,40,2.10
2020,03,31,02,41,2.10
2020,03,31,02,42,2.10
2020,03,31,02,43,2.10
2020,03,31,02,44,2.10
2020,03,31,02,45,2.10
2020,03,31,02,46,2.10
2020,03,31,02,47,2.10
2020,03,31,02,48,2.10
2020,03,31,02,49,2.10
2020,03,31,02,50,2.10
2020,03,31,02,51,2.10
2020,03,31,02,52,2.10
2020,03,31,02,53,2.10
2020,03,31,02,54,2.10
2020,03,31,02,55,2.10
2020,03,31,02,56,2.10
2020,03,31,02,57,2.10
2020,03,31,02,58,2.10
2020,03,31,02,59,2.10
2020,03,31,03,00,2.10
2020,03,31,03,01,2.10
2020,03,31,03,02,2.10
2020,03,31,03,03,2.10
2020,03,31,03,04,2.10
2020,03,31,03,05,2.10
2020,03,31,03,06,2.10
2020,03,31,03,07,2.10
2020,03,31,03,08,2.10
2020,03,31,03,09,2.10
2020,03,31,03,10,2.10
2020,03,31,03,11,2.10
2020,03,31,03,12,2.10
2020,03,31,03,13,2.10
2020,03,31,03,14,2.10
2020,03,31,03,15,2.10
2020,03,31,03,16,2.10
2020,03,31,03,17,2.10
2020,03,31,03,18,2.10
2020,03,31,03,19,2.10
2020,03,31,03,20,2.10
2020,03,31,03,21,2.10
2020,03,31,03,22,2.10
2020,03,31,03,23,2.20
2020,03,31,03,24,2.20
2020,03,31,03,25,2.20
2020,03,31,03,26,2.20
2020,03,31,03,27,2.20
2020,03,31,03,28,2.20
2020,03,31,03,29,2.20
2020,03,31,03,30,2.20
2020,03,31,03,31,2.20
2020,03,31,03,32,2.20
2020,03,31,03,33,2.20
2020,03,31,03,34,2.20
2020,03,31,03,35,2.20
2020,03,31,03,36,2.20
2020,03,31,03,37,2.20
2020,03,31,03,38,2.20
2020,03,31,03,39,2.20
2020,03,31,03,40,2.20
2020,03,31,03,41,2.20
2020,03,31,03,42,2.20
2020,03,31,03,43,2.20
2020,03,31,03,44,2.20
2020,03,31,03,45,2.20
2020,03,31,03,46,2.20
2020,03,31,03,47,2.20
2020,03,31,03,48,2.20
2020,03,31,03,49,2.20
2020,03,31,03,50,2.20
2020,03,31,03,51,2.20
2020,03,31,03,52,2.20
2020,03,31,03,53,2.20
2020,03,31,03,54,2.20
2020,03,31,03,55,2.20
2020,03,31,03,56,2.20
2020,03,31,03,57,2.20
2020,03,31,03,58,2.20
2020,03,31,03,59,2.20
2020,03,31,04,00,2.20
2020,03,31,04,01,2.20
2020,03,31,04,02,2.20
2020,03,31,04,03,2.20
2020,03,31,04,04,2.20
2020,03,31,04,05,2.20
2020,03,31,04,06,2.20
2020,03,31,04,07,2.20
2020,03,31,04,08,2.20
2020,03,31,04,09,2.20
2020,03,31,04,10,2.20
2020,03,31,04,11,2.20
2020,03,31,04,12,2.20
2020,03,31,04,13,2.20
2020,03,31,04,14,2.20
2020,03,31,04,15,2.30
2020,03,31,04,16,2.30
2020,03,31,04,17,2.30
2020,03,31,04,18,2.30
2020,03,31,04,19,2.30
2020,03,31,04,20,2.30
2020,03,31,04,21,2.30
2020,03,31,04,22,2.30
2020,03,31,04,23,2.30
2020,03,31,04,24,2.30
2020,03,31,04,25,2.30
2020,03,31,04,26,2.30
2020,03,31,04,27,2.30
2020,03,31,04,28,2.30
2020,03,31,04,29,2.30
2020,03,31,04,30,2.30
2020,03,31,04,31,2.30
2020,03,31,04,32,2.30
2020,03,31,04,33,2.20
2020,03,31,04,34,2.20
2020,03,31,04,35,2.20
2020,03,31,04,36,2.10
2020,03,31,04,37,2.10
2020,03,31,04,38,2.10
2020,03,31,04,39,2.10
2020,03,31,04,40,2.10
2020,03,31,04,41,2.00
2020,03,31,04,42,2.00
2020,03,31,04,43,2.00
2020,03,31,04,44,1.90
2020,03,31,04,45,1.90
2020,03,31,04,46,1.80
2020,03,31,04,47,1.80
2020,03,31,04,48,1.70
2020,03,31,04,49,1.70
2020,03,31,04,50,1.60
2020,03,31,04,51,1.60
2020,03,31,04,52,1.50
2020,03,31,04,53,1.40
2020,03,31,04,54,1.30
2020,03,31,04,55,1.30
2020,03,31,04,56,1.20
2020,03,31,04,57,1.20
2020,03,31,04,58,1.20
2020,03,31,04,59,1.10
2020,03,31,05,00,1.10
2020,03,31,05,01,1.10
2020,03,31,05,02,1.00
2020,03,31,05,03,1.00
2020,03,31,05,04,0.90
2020,03,31,05,05,0.90
2020,03,31,05,06,0.90
2020,03,31,05,07,0.90
2020,03,31,05,08,0.90
2020,03,31,05,09,0.90
2020,03,31,05,10,0.80
2020,03,31,05,11,0.80
2020,03,31,05,12,0.80
2020,03,31,05,13,0.80
2020,03,31,05,14,0.80
2020,03,31,05,15,0.80
2020,03,31,05,16,0.80
2020,03,31,05,17,0.80
2020,03,31,05,18,0.80
2020,03,31,05,19,0.80
2020,03,31,05,20,0.80
2020,03,31,05,21,0.80
2020,03,31,05,22,0.80
2020,03,31,05,23,0.80
2020,03,31,05,24,0.80
2020,03,31,05,25,0.80
2020,03,31,05,26,0.80
2020,03,31,05,27,0.80
2020,03,31,05,28,0.80
2020,03,31,05,29,0.80
2020,03,31,05,30,0.80
2020,03,31,05,31,0.80
2020,03,31,05,32,0.80
2020,03,31,05,33,0.80
2020,03,31,05,34,0.80
2020,03,31,05,35,0.80
2020,03,31,05,36,0.80
2020,03,31,05,37,0.80
2020,03,31,05,38,0.80
2020,03,31,05,39,0.80
2020,03,31,05,40,0.80
2020,03,31,05,41,0.80
2020,03,31,05,42,0.80
2020,03,31,05,43,0.80
2020,03,31,05,44,0.80
2020,03,31,05,45,0.70
2020,03,31,05,46,0.70
2020,03,31,05,47,0.70
2020,03,31,05,48,0.70
2020,03,31,05,49,0.70
2020,03,31,05,50,0.70
2020,03,31,05,51,0.70
2020,03,31,05,52,0.70
2020,03,31,05,53,0.70
2020,03,31,05,54,0.70
2020,03,31,05,55,0.70
2020,03,31,05,56,0.70
2020,03,31,05,57,0.80
2020,03,31,05,58,0.80
2020,03,31,05,59,0.80
2020,03,31,06,00,0.80
2020,03,31,06,01,0.80
2020,03,31,06,02,0.80
2020,03,31,06,03,0.80
2020,03,31,06,04,0.80
2020,03,31,06,05,0.80
2020,03,31,06,06,0.80
2020,03,31,06,07,0.80
2020,03,31,06,08,0.80
2020,03,31,06,09,0.90
2020,03,31,06,10,0.90
2020,03,31,06,11,0.90
2020,03,31,06,12,0.90
2020,03,31,06,13,0.90
2020,03,31,06,14,0.90
2020,03,31,06,15,0.90
2020,03,31,06,16,0.90
2020,03,31,06,17,0.90
2020,03,31,06,18,0.90
2020,03,31,06,19,0.90
2020,03,31,06,20,0.90
2020,03,31,06,21,0.90
2020,03,31,06,22,0.90
2020,03,31,06,23,0.90
2020,03,31,06,24,0.90
2020,03,31,06,25,0.80
2020,03,31,06,26,0.80
2020,03,31,06,27,0.80
2020,03,31,06,28,0.80
2020,03,31,06,29,0.80
2020,03,31,06,30,0.80
2020,03,31,06,31,0.80
2020,03,31,06,32,0.80
2020,03,31,06,33,0.80
2020,03,31,06,34,0.80
2020,03,31,06,35,0.80
2020,03,31,06,36,0.90
2020,03,31,06,37,0.90
2020,03,31,06,38,0.90
2020,03,31,06,39,0.90
2020,03,31,06,40,0.90
2020,03,31,06,41,0.90
2020,03,31,06,42,0.90
2020,03,31,06,43,0.90
2020,03,31,06,44,0.90
2020,03,31,06,45,0.90
2020,03,31,06,46,0.90
2020,03,31,06,47,0.90
2020,03,31,06,48,0.90
2020,03,31,06,49,0.90
2020,03,31,06,50,0.90
2020,03,31,06,51,0.90
2020,03,31,06,52,0.90
2020,03,31,06,53,0.90
2020,03,31,06,54,0.90
2020,03,31,06,55,0.90
2020,03,31,06,56,0.90
2020,03,31,06,57,0.90
2020,03,31,06,58,0.90
2020,03,31,06,59,0.90
2020,03,31,07,00,1.00
2020,03,31,07,01,1.00
2020,03,31,07,02,1.00
2020,03,31,07,03,1.00
2020,03,31,07,04,1.00
2020,03,31,07,05,1.00
2020,03,31,07,06,1.00
2020,03,31,07,07,1.00
2020,03,31,07,08,1.00
2020,03,31,07,09,1.00
2020,03,31,07,10,1.00
2020,03,31,07,11,1.00
2020,03,31,07,12,1.00
2020,03,31,07,13,1.00
2020,03,31,07,14,1.00
2020,03,31,07,15,1.00
2020,03,31,07,16,1.10
2020,03,31,07,17,1.00
2020,03,31,07,18,1.00
2020,03,31,07,19,1.00
2020,03,31,07,20,1.00
2020,03,31,07,21,1.00
2020,03,31,07,22,1.00
2020,03,31,07,23,1.00
2020,03,31,07,24,1.00
2020,03,31,07,25,1.00
2020,03,31,07,26,1.00
2020,03,31,07,27,1.00
2020,03,31,07,28,1.00
2020,03,31,07,29,1.00
2020,03,31,07,30,1.00
2020,03,31,07,31,1.00
2020,03,31,07,32,1.00
2020,03,31,07,33,1.00
2020,03,31,07,34,1.00
2020,03,31,07,35,1.00
2020,03,31,07,36,1.10
2020,03,31,07,37,1.10
2020,03,31,07,38,1.10
2020,03,31,07,39,1.10
2020,03,31,07,40,1.10
2020,03,31,07,41,1.10
2020,03,31,07,42,1.10
2020,03,31,07,43,1.10
2020,03,31,07,44,1.20
2020,03,31,07,45,1.20
2020,03,31,07,46,1.20
2020,03,31,07,47,1.20
2020,03,31,07,48,1.20
2020,03,31,07,49,1.20
2020,03,31,07,50,1.20
2020,03,31,07,51,1.30
2020,03,31,07,52,1.30
2020,03,31,07,53,1.30
2020,03,31,07,54,1.30
2020,03,31,07,55,1.30
2020,03,31,07,56,1.30
2020,03,31,07,57,1.30
2020,03,31,07,58,1.30
2020,03,31,07,59,1.30
2020,03,31,08,00,1.40
2020,03,31,08,01,1.40
2020,03,31,08,02,1.40
2020,03,31,08,03,1.40
2020,03,31,08,04,1.40
2020,03,31,08,05,1.40
2020,03,31,08,06,1.50
2020,03,31,08,07,1.50
2020,03,31,08,08,1.50
2020,03,31,08,09,1.50
2020,03,31,08,10,1.60
2020,03,31,08,11,1.60
2020,03,31,08,12,1.60
2020,03,31,08,13,1.60
2020,03,31,08,14,1.60
2020,03,31,08,15,1.60
2020,03,31,08,16,1.60
2020,03,31,08,17,1.60
2020,03,31,08,18,1.60
2020,03,31,08,19,1.70
2020,03,31,08,20,1.70
2020,03,31,08,21,1.70
2020,03,31,08,22,1.70
2020,03,31,08,23,1.70
2020,03,31,08,24,1.80
2020,03,31,08,25,1.80
2020,03,31,08,26,1.80
2020,03,31,08,27,1.80
2020,03,31,08,28,1.80
2020,03,31,08,29,1.80
2020,03,31,08,30,1.80
2020,03,31,08,31,1.80
2020,03,31,08,32,1.80
2020,03,31,08,33,1.90
2020,03,31,08,34,1.90
2020,03,31,08,35,1.90
2020,03,31,08,36,1.90
2020,03,31,08,37,1.90
2020,03,31,08,38,2.00
2020,03,31,08,39,2.00
2020,03,31,08,40,2.00
2020,03,31,08,41,2.10
2020,03,31,08,42,2.10
2020,03,31,08,43,2.10
2020,03,31,08,44,2.10
2020,03,31,08,45,2.10
2020,03,31,08,46,2.20
2020,03,31,08,47,2.20
2020,03,31,08,48,2.20
2020,03,31,08,49,2.30
2020,03,31,08,50,2.30
2020,03,31,08,51,2.30
2020,03,31,08,52,2.40
2020,03,31,08,53,2.40
2020,03,31,08,54,2.50
2020,03,31,08,55,2.50
2020,03,31,08,56,2.60
2020,03,31,08,57,2.60
2020,03,31,08,58,2.60
2020,03,31,08,59,2.70
2020,03,31,09,00,2.70
2020,03,31,09,01,2.70
2020,03,31,09,02,2.80
2020,03,31,09,03,2.80
2020,03,31,09,04,2.80
2020,03,31,09,05,2.80
2020,03,31,09,06,2.80
2020,03,31,09,07,2.90
2020,03,31,09,08,2.90
2020,03,31,09,09,2.90
2020,03,31,09,10,2.90
2020,03,31,09,11,3.00
2020,03,31,09,12,3.00
2020,03,31,09,13,3.00
2020,03,31,09,14,3.10
2020,03,31,09,15,3.10
2020,03,31,09,16,3.10
2020,03,31,09,17,3.20
2020,03,31,09,18,3.20
2020,03,31,09,19,3.20
2020,03,31,09,20,3.30
2020,03,31,09,21,3.30
2020,03,31,09,22,3.30
2020,03,31,09,23,3.30
2020,03,31,09,24,3.30
2020,03,31,09,25,3.20
2020,03,31,09,26,3.20
2020,03,31,09,27,3.20
2020,03,31,09,28,3.20
2020,03,31,09,29,3.20
2020,03,31,09,30,3.20
2020,03,31,09,31,3.30
2020,03,31,09,32,3.30
2020,03,31,09,33,3.30
2020,03,31,09,34,3.40
2020,03,31,09,35,3.40
2020,03,31,09,36,3.30
2020,03,31,09,37,3.30
2020,03,31,09,38,3.30
2020,03,31,09,39,3.30
2020,03,31,09,40,3.40
2020,03,31,09,41,3.40
2020,03,31,09,42,3.40
2020,03,31,09,43,3.40
2020,03,31,09,44,3.40
2020,03,31,09,45,3.30
2020,03,31,09,46,3.30
2020,03,31,09,47,3.30
2020,03,31,09,48,3.30
2020,03,31,09,49,3.30
2020,03,31,09,50,3.40
2020,03,31,09,51,3.40
2020,03,31,09,52,3.40
2020,03,31,09,53,3.40
2020,03,31,09,54,3.40
2020,03,31,09,55,3.40
2020,03,31,09,56,3.40
2020,03,31,09,57,3.40
2020,03,31,09,58,3.40
2020,03,31,09,59,3.40
2020,03,31,10,00,3.50
2020,03,31,10,01,3.60
2020,03,31,10,02,3.70
2020,03,31,10,03,3.80
2020,03,31,10,04,3.90
2020,03,31,10,05,4.00
2020,03,31,10,06,4.00
2020,03,31,10,07,4.10
2020,03,31,10,08,4.10
2020,03,31,10,09,4.20
2020,03,31,10,10,4.10
2020,03,31,10,11,4.10
2020,03,31,10,12,4.10
2020,03,31,10,13,4.10
2020,03,31,10,14,4.20
2020,03,31,10,15,4.20
2020,03,31,10,16,4.20
2020,03,31,10,17,4.30
2020,03,31,10,18,4.30
2020,03,31,10,19,4.30
2020,03,31,10,20,4.30
2020,03,31,10,21,4.30
2020,03,31,10,22,4.30
2020,03,31,10,23,4.30
2020,03,31,10,24,4.30
2020,03,31,10,25,4.30
2020,03,31,10,26,4.30
2020,03,31,10,27,4.30
2020,03,31,10,28,4.40
2020,03,31,10,29,4.40
2020,03,31,10,30,4.40
2020,03,31,10,31,4.50
2020,03,31,10,32,4.60
2020,03,31,10,33,4.60
2020,03,31,10,34,4.60
2020,03,31,10,35,4.60
2020,03,31,10,36,4.60
2020,03,31,10,37,4.60
2020,03,31,10,38,4.60
2020,03,31,10,39,4.60
2020,03,31,10,40,4.60
2020,03,31,10,41,4.60
2020,03,31,10,42,4.60
2020,03,31,10,43,4.60
2020,03,31,10,44,4.70
2020,03,31,10,45,4.80
2020,03,31,10,46,4.90
2020,03,31,10,47,5.00
2020,03,31,10,48,5.00
2020,03,31,10,49,5.00
2020,03,31,10,50,5.00
2020,03,31,10,51,5.10
2020,03,31,10,52,5.10
2020,03,31,10,53,5.10
2020,03,31,10,54,5.10
2020,03,31,10,55,5.00
2020,03,31,10,56,5.10
2020,03,31,10,57,5.10
2020,03,31,10,58,5.10
2020,03,31,10,59,5.20
2020,03,31,11,00,5.30
2020,03,31,11,01,5.40
2020,03,31,11,02,5.50
2020,03,31,11,03,5.50
2020,03,31,11,04,5.50
2020,03,31,11,05,5.40
2020,03,31,11,06,5.40
2020,03,31,11,07,5.30
2020,03,31,11,08,5.30
2020,03,31,11,09,5.30
2020,03,31,11,10,5.30
2020,03,31,11,11,5.20
2020,03,31,11,12,5.30
2020,03,31,11,13,5.30
2020,03,31,11,14,5.30
2020,03,31,11,15,5.30
2020,03,31,11,16,5.40
2020,03,31,11,17,5.40
2020,03,31,11,18,5.50
2020,03,31,11,19,5.50
2020,03,31,11,20,5.50
2020,03,31,11,21,5.50
2020,03,31,11,22,5.50
2020,03,31,11,23,5.50
2020,03,31,11,24,5.50
2020,03,31,11,25,5.60
2020,03,31,11,26,5.60
2020,03,31,11,27,5.60
2020,03,31,11,28,5.60
2020,03,31,11,29,5.60
2020,03,31,11,30,5.60
2020,03,31,11,31,5.60
2020,03,31,11,32,5.60
2020,03,31,11,33,5.60
2020,03,31,11,34,5.70
2020,03,31,11,35,5.70
2020,03,31,11,36,5.70
2020,03,31,11,37,5.70
2020,03,31,11,38,5.70
2020,03,31,11,39,5.70
2020,03,31,11,40,5.70
2020,03,31,11,41,5.70
2020,03,31,11,42,5.80
2020,03,31,11,43,5.70
2020,03,31,11,44,5.70
2020,03,31,11,45,5.70
2020,03,31,11,46,5.70
2020,03,31,11,47,5.70
2020,03,31,11,48,5.70
2020,03,31,11,49,5.70
2020,03,31,11,50,5.70
2020,03,31,11,51,5.80
2020,03,31,11,52,5.80
2020,03,31,11,53,5.80
2020,03,31,11,54,5.80
2020,03,31,11,55,5.80
2020,03,31,11,56,5.80
2020,03,31,11,57,5.80
2020,03,31,11,58,5.80
2020,03,31,11,59,5.80
2020,03,31,12,00,5.90
2020,03,31,12,01,5.90
2020,03,31,12,02,5.90
2020,03,31,12,03,5.80
2020,03,31,12,04,5.90
2020,03,31,12,05,5.90
2020,03,31,12,06,6.00
2020,03,31,12,07,6.00
2020,03,31,12,08,6.00
2020,03,31,12,09,6.10
2020,03,31,12,10,6.00
2020,03,31,12,11,6.00
2020,03,31,12,12,6.00
2020,03,31,12,13,6.10
2020,03,31,12,14,6.10
2020,03,31,12,15,6.20
2020,03,31,12,16,6.20
2020,03,31,12,17,6.30
2020,03,31,12,18,6.30
2020,03,31,12,19,6.40
2020,03,31,12,20,6.40
2020,03,31,12,21,6.40
2020,03,31,12,22,6.50
2020,03,31,12,23,6.60
2020,03,31,12,24,6.60
2020,03,31,12,25,6.70
2020,03,31,12,26,6.70
2020,03,31,12,27,6.70
2020,03,31,12,28,6.70
2020,03,31,12,29,6.70
2020,03,31,12,30,6.70
2020,03,31,12,31,6.70
2020,03,31,12,32,6.70
2020,03,31,12,33,6.80
2020,03,31,12,34,6.80
2020,03,31,12,35,6.80
2020,03,31,12,36,6.90
2020,03,31,12,37,7.00
2020,03,31,12,38,7.00
2020,03,31,12,39,7.10
2020,03,31,12,40,7.20
2020,03,31,12,41,7.20
2020,03,31,12,42,7.20
2020,03,31,12,43,7.20
2020,03,31,12,44,7.30
2020,03,31,12,45,7.40
2020,03,31,12,46,7.40
2020,03,31,12,47,7.50
2020,03,31,12,48,7.50
2020,03,31,12,49,7.60
2020,03,31,12,50,7.60
2020,03,31,12,51,7.60
2020,03,31,12,52,7.60
2020,03,31,12,53,7.60
2020,03,31,12,54,7.60
2020,03,31,12,55,7.60
2020,03,31,12,56,7.50
2020,03,31,12,57,7.50
2020,03,31,12,58,7.50
2020,03,31,12,59,7.50
2020,03,31,13,00,7.40
2020,03,31,13,01,7.50
2020,03,31,13,02,7.50
2020,03,31,13,03,7.50
2020,03,31,13,04,7.60
2020,03,31,13,05,7.60
2020,03,31,13,06,7.60
2020,03,31,13,07,7.60
2020,03,31,13,08,7.70
2020,03,31,13,09,7.80
2020,03,31,13,10,7.80
2020,03,31,13,11,7.80
2020,03,31,13,12,7.80
2020,03,31,13,13,7.90
2020,03,31,13,14,7.90
2020,03,31,13,15,7.90
2020,03,31,13,16,7.80
2020,03,31,13,17,7.90
2020,03,31,13,18,7.90
2020,03,31,13,19,7.90
2020,03,31,13,20,8.00
2020,03,31,13,21,8.00
2020,03,31,13,22,8.00
2020,03,31,13,23,8.00
2020,03,31,13,24,8.00
2020,03,31,13,25,7.90
2020,03,31,13,26,7.90
2020,03,31,13,27,7.80
2020,03,31,13,28,7.80
2020,03,31,13,29,7.70
2020,03,31,13,30,7.70
2020,03,31,13,31,7.70
2020,03,31,13,32,7.80
2020,03,31,13,33,7.80
2020,03,31,13,34,7.80
2020,03,31,13,35,7.80
2020,03,31,13,36,7.80
2020,03,31,13,37,7.90
2020,03,31,13,38,7.90
2020,03,31,13,39,7.90
2020,03,31,13,40,7.90
2020,03,31,13,41,7.90
2020,03,31,13,42,7.90
2020,03,31,13,43,7.80
2020,03,31,13,44,7.80
2020,03,31,13,45,7.80
2020,03,31,13,46,7.80
2020,03,31,13,47,7.70
2020,03,31,13,48,7.70
2020,03,31,13,49,7.60
2020,03,31,13,50,7.60
2020,03,31,13,51,7.50
2020,03,31,13,52,7.50
2020,03,31,13,53,7.40
2020,03,31,13,54,7.40
2020,03,31,13,55,7.40
2020,03,31,13,56,7.40
2020,03,31,13,57,7.40
2020,03,31,13,58,7.40
2020,03,31,13,59,7.40
2020,03,31,14,00,7.40
2020,03,31,14,01,7.40
2020,03,31,14,02,7.40
2020,03,31,14,03,7.40
2020,03,31,14,04,7.40
2020,03,31,14,05,7.40
2020,03,31,14,06,7.40
2020,03,31,14,07,7.50
2020,03,31,14,08,7.50
2020,03,31,14,09,7.50
2020,03,31,14,10,7.60
2020,03,31,14,11,7.60
2020,03,31,14,12,7.60
2020,03,31,14,13,7.60
2020,03,31,14,14,7.70
2020,03,31,14,15,7.70
2020,03,31,14,16,7.90
2020,03,31,14,17,8.00
2020,03,31,14,18,8.10
2020,03,31,14,19,8.10
2020,03,31,14,20,8.20
2020,03,31,14,21,8.20
2020,03,31,14,22,8.30
2020,03,31,14,23,8.30
2020,03,31,14,24,8.30
2020,03,31,14,25,8.30
2020,03,31,14,26,8.30
2020,03,31,14,27,8.30
2020,03,31,14,28,8.20
2020,03,31,14,29,8.20
2020,03,31,14,30,8.20
2020,03,31,14,31,8.20
2020,03,31,14,32,8.20
2020,03,31,14,33,8.20
2020,03,31,14,34,8.10
2020,03,31,14,35,8.10
2020,03,31,14,36,8.10
2020,03,31,14,37,8.20
2020,03,31,14,38,8.20
2020,03,31,14,39,8.20
2020,03,31,14,40,8.20
2020,03,31,14,41,8.20
2020,03,31,14,42,8.20
2020,03,31,14,43,8.30
2020,03,31,14,44,8.30
2020,03,31,14,45,8.30
2020,03,31,14,46,8.30
2020,03,31,14,47,8.40
2020,03,31,14,48,8.40
2020,03,31,14,49,8.40
2020,03,31,14,50,8.50
2020,03,31,14,51,8.60
2020,03,31,14,52,8.60
2020,03,31,14,53,8.60
2020,03,31,14,54,8.60
2020,03,31,14,55,8.60
2020,03,31,14,56,8.60
2020,03,31,14,57,8.60
2020,03,31,14,58,8.60
2020,03,31,14,59,8.60
2020,03,31,15,00,8.60
2020,03,31,15,01,8.70
2020,03,31,15,02,8.70
2020,03,31,15,03,8.70
2020,03,31,15,04,8.70
2020,03,31,15,05,8.70
2020,03,31,15,06,8.70
2020,03,31,15,07,8.80
2020,03,31,15,08,8.90
2020,03,31,15,09,8.90
2020,03,31,15,10,9.00
2020,03,31,15,11,9.10
2020,03,31,15,12,9.10
2020,03,31,15,13,9.10
2020,03,31,15,14,9.10
2020,03,31,15,15,9.10
2020,03,31,15,16,9.20
2020,03,31,15,17,9.20
2020,03,31,15,18,9.30
2020,03,31,15,19,9.30
2020,03,31,15,20,9.30
2020,03,31,15,21,9.30
2020,03,31,15,22,9.30
2020,03,31,15,23,9.30
2020,03,31,15,24,9.20
2020,03,31,15,25,9.20
2020,03,31,15,26,9.10
2020,03,31,15,27,9.00
2020,03,31,15,28,8.90
2020,03,31,15,29,8.90
2020,03,31,15,30,8.80
2020,03,31,15,31,8.80
2020,03,31,15,32,8.80
2020,03,31,15,33,8.80
2020,03,31,15,34,8.80
2020,03,31,15,35,8.80
2020,03,31,15,36,8.70
2020,03,31,15,37,8.70
2020,03,31,15,38,8.60
2020,03,31,15,39,8.60
2020,03,31,15,40,8.60
2020,03,31,15,41,8.60
2020,03,31,15,42,8.60
2020,03,31,15,43,8.70
2020,03,31,15,44,8.70
2020,03,31,15,45,8.70
2020,03,31,15,46,8.60
2020,03,31,15,47,8.50
2020,03,31,15,48,8.40
2020,03,31,15,49,8.30
2020,03,31,15,50,8.30
2020,03,31,15,51,8.20
2020,03,31,15,52,8.20
2020,03,31,15,53,8.20
2020,03,31,15,54,8.20
2020,03,31,15,55,8.20
2020,03,31,15,56,8.30
2020,03,31,15,57,8.30
2020,03,31,15,58,8.30
2020,03,31,15,59,8.20
2020,03,31,16,00,8.20
2020,03,31,16,01,8.30
2020,03,31,16,02,8.20
2020,03,31,16,03,8.20
2020,03,31,16,04,8.20
2020,03,31,16,05,8.20
2020,03,31,16,06,8.20
2020,03,31,16,07,8.20
2020,03,31,16,08,8.20
2020,03,31,16,09,8.20
2020,03,31,16,10,8.20
2020,03,31,16,11,8.20
2020,03,31,16,12,8.20
2020,03,31,16,13,8.30
2020,03,31,16,14,8.30
2020,03,31,16,15,8.20
2020,03,31,16,16,8.20
2020,03,31,16,17,8.20
2020,03,31,16,18,8.10
2020,03,31,16,19,8.10
2020,03,31,16,20,8.10
2020,03,31,16,21,8.10
2020,03,31,16,22,8.10
2020,03,31,16,23,8.20
2020,03,31,16,24,8.20
2020,03,31,16,25,8.20
2020,03,31,16,26,8.30
2020,03,31,16,27,8.30
2020,03,31,16,28,8.30
2020,03,31,16,29,8.30
2020,03,31,16,30,8.30
2020,03,31,16,31,8.30
2020,03,31,16,32,8.30
2020,03,31,16,33,8.30
2020,03,31,16,34,8.30
2020,03,31,16,35,8.20
2020,03,31,16,36,8.20
2020,03,31,16,37,8.10
2020,03,31,16,38,8.00
2020,03,31,16,39,8.00
2020,03,31,16,40,7.90
2020,03,31,16,41,7.80
2020,03,31,16,42,7.70
2020,03,31,16,43,7.70
2020,03,31,16,44,7.70
2020,03,31,16,45,7.60
2020,03,31,16,46,7.50
2020,03,31,16,47,7.50
2020,03,31,16,48,7.50
2020,03,31,16,49,7.50
2020,03,31,16,50,7.50
2020,03,31,16,51,7.50
2020,03,31,16,52,7.50
2020,03,31,16,53,7.50
2020,03,31,16,54,7.50
2020,03,31,16,55,7.50
2020,03,31,16,56,7.40
2020,03,31,16,57,7.40
2020,03,31,16,58,7.40
2020,03,31,16,59,7.30
2020,03,31,17,00,7.30
2020,03,31,17,01,7.30
2020,03,31,17,02,7.30
2020,03,31,17,03,7.40
2020,03,31,17,04,7.40
2020,03,31,17,05,7.40
2020,03,31,17,06,7.40
2020,03,31,17,07,7.40
2020,03,31,17,08,7.40
2020,03,31,17,09,7.40
2020,03,31,17,10,7.40
2020,03,31,17,11,7.40
2020,03,31,17,12,7.40
2020,03,31,17,13,7.50
2020,03,31,17,14,7.50
2020,03,31,17,15,7.40
2020,03,31,17,16,7.50
2020,03,31,17,17,7.40
2020,03,31,17,18,7.40
2020,03,31,17,19,7.40
2020,03,31,17,20,7.30
2020,03,31,17,21,7.30
2020,03,31,17,22,7.30
2020,03,31,17,23,7.20
2020,03,31,17,24,7.10
2020,03,31,17,25,7.00
2020,03,31,17,26,7.00
2020,03,31,17,27,6.90
2020,03,31,17,28,6.80
2020,03,31,17,29,6.70
2020,03,31,17,30,6.60
2020,03,31,17,31,6.50
2020,03,31,17,32,6.40
2020,03,31,17,33,6.40
2020,03,31,17,34,6.30
2020,03,31,17,35,6.20
2020,03,31,17,36,6.10
2020,03,31,17,37,6.00
2020,03,31,17,38,6.00
2020,03,31,17,39,5.90
2020,03,31,17,40,5.90
2020,03,31,17,41,5.80
2020,03,31,17,42,5.80
2020,03,31,17,43,5.70
2020,03,31,17,44,5.70
2020,03,31,17,45,5.60
2020,03,31,17,46,5.60
2020,03,31,17,47,5.60
2020,03,31,17,48,5.60
2020,03,31,17,49,5.50
2020,03,31,17,50,5.50
2020,03,31,17,51,5.50
2020,03,31,17,52,5.50
2020,03,31,17,53,5.50
2020,03,31,17,54,5.50
2020,03,31,17,55,5.40
2020,03,31,17,56,5.50
2020,03,31,17,57,5.50
2020,03,31,17,58,5.50
2020,03,31,17,59,5.50
2020,03,31,18,00,5.60
2020,03,31,18,01,5.60
2020,03,31,18,02,5.60
2020,03,31,18,03,5.60
2020,03,31,18,04,5.60
2020,03,31,18,05,5.60
2020,03,31,18,06,5.70